TimeEST,TemperatureF,Dew PointF,Humidity,Sea Level PressureIn,VisibilityMPH,Wind Direction,Wind SpeedMPH,Gust SpeedMPH,PrecipitationIn,Events,Conditions,WindDirDegrees,DateUTC
12:56 AM,19.9,7.0,57,29.99,10.0,WSW,6.9,-,N/A,,Overcast,240,2013-02-05 05:56:00
1:56 AM,19.9,7.0,57,30.00,10.0,SW,6.9,-,N/A,,Overcast,230,2013-02-05 06:56:00
2:56 AM,19.9,8.1,60,29.99,10.0,WSW,4.6,-,N/A,,Overcast,250,2013-02-05 07:56:00
3:56 AM,19.9,8.1,60,30.00,10.0,WSW,5.8,-,N/A,,Overcast,240,2013-02-05 08:56:00
4:56 AM,19.9,8.1,60,30.01,10.0,Calm,Calm,-,N/A,,Overcast,0,2013-02-05 09:56:00
5:56 AM,19.9,10.0,65,30.01,10.0,SW,4.6,-,N/A,,Overcast,220,2013-02-05 10:56:00
6:56 AM,21.0,10.0,63,30.03,10.0,SW,3.5,-,N/A,,Overcast,220,2013-02-05 11:56:00
7:56 AM,21.9,10.0,60,30.05,10.0,Calm,Calm,-,N/A,,Overcast,0,2013-02-05 12:56:00
8:56 AM,23.0,9.0,55,30.06,10.0,NW,4.6,-,N/A,,Overcast,310,2013-02-05 13:56:00
9:56 AM,24.1,8.1,51,30.06,10.0,NNW,3.5,-,N/A,,Overcast,330,2013-02-05 14:56:00
10:56 AM,25.0,7.0,46,30.06,10.0,Calm,Calm,-,N/A,,Overcast,0,2013-02-05 15:56:00
11:56 AM,27.0,8.1,45,30.04,10.0,North,3.5,-,N/A,,Overcast,360,2013-02-05 16:56:00
12:56 PM,27.0,9.0,47,30.02,10.0,Calm,Calm,-,N/A,,Mostly Cloudy,0,2013-02-05 17:56:00
1:56 PM,28.0,10.0,47,30.01,10.0,Calm,Calm,-,N/A,,Clear,0,2013-02-05 18:56:00
2:56 PM,28.0,10.9,49,30.01,10.0,SE,4.6,-,N/A,,Clear,130,2013-02-05 19:56:00
3:56 PM,27.0,10.9,51,29.99,10.0,SE,5.8,-,N/A,,Partly Cloudy,140,2013-02-05 20:56:00
4:56 PM,26.1,12.9,58,30.00,10.0,SE,6.9,-,N/A,,Overcast,130,2013-02-05 21:56:00
5:56 PM,26.1,14.0,60,29.99,10.0,SE,5.8,-,N/A,,Mostly Cloudy,130,2013-02-05 22:56:00
6:56 PM,26.1,14.0,60,30.00,10.0,SE,9.2,-,N/A,,Overcast,140,2013-02-05 23:56:00
8:40 PM,24.8,19.4,80,29.95,2.0,Calm,Calm,-,N/A,Snow,Light Snow,0,2013-02-06 01:40:00
8:56 PM,24.1,21.0,88,30.01,2.0,Calm,Calm,-,0.00,Snow,Light Snow,0,2013-02-06 01:56:00
9:03 PM,24.8,21.2,86,29.95,3.0,Calm,Calm,-,0.00,Snow,Light Snow,0,2013-02-06 02:03:00
9:17 PM,24.8,21.2,86,29.95,2.5,Calm,Calm,-,0.00,Snow,Light Snow,0,2013-02-06 02:17:00
9:30 PM,24.8,21.2,86,29.95,3.0,Calm,Calm,-,0.00,Snow,Light Snow,0,2013-02-06 02:30:00
9:56 PM,24.1,21.9,91,30.00,7.0,Calm,Calm,-,0.00,,Overcast,0,2013-02-06 02:56:00
10:56 PM,24.1,21.9,91,29.99,8.0,Calm,Calm,-,0.00,,Overcast,0,2013-02-06 03:56:00
11:56 PM,24.1,23.0,96,29.98,4.0,Calm,Calm,-,0.00,Snow,Light Snow,0,2013-02-06 04:56:00